When you browse on this site, cookies collect data to enhance your experience and personalize the content and advertising you see.
Visit our Privacy Policy to learn more. By continuing to use the site, you agree to this use of cookies and data.
  • In Spain
  • List of Countries
  • For 7 days
  • Water Temperature
  • Weather Map
  • Weather Widgets
  • user-avatar
    Login

    Hourly Weather Mendoza

    Today, 4 June, Thursday

    Time Temperature Precipitation Wind Pressure Humidity
    00:00 +6°C° 0 mm 1 mps 703 mmHg 81%
    01:00 +4°C° 0 mm 0 mps 702 mmHg 82%
    02:00 +5°C° 0 mm 1 mps 702 mmHg 81%
    03:00 +5°C° 0 mm 1 mps 702 mmHg 81%
    04:00 +6°C° 0 mm 1 mps 702 mmHg 80%
    05:00 +6°C° 0 mm 1 mps 702 mmHg 79%
    06:00 +6°C° 0 mm 1 mps 702 mmHg 79%
    07:00 +5°C° 0 mm 2 mps 702 mmHg 78%
    08:00 +6°C° 0 mm 2 mps 702 mmHg 70%
    09:00 +8°C° 0 mm 2 mps 702 mmHg 62%
    10:00 +9°C° 0 mm 3 mps 702 mmHg 55%
    11:00 +10°C° 0 mm 3 mps 701 mmHg 50%
    12:00 +12°C° 0 mm 2 mps 700 mmHg 46%
    13:00 +13°C° 0 mm 2 mps 700 mmHg 42%
    14:00 +13°C° 0 mm 2 mps 700 mmHg 42%
    15:00 +13°C° 0 mm 2 mps 699 mmHg 42%
    16:00 +13°C° 0 mm 2 mps 699 mmHg 42%
    17:00 +12°C° 0 mm 2 mps 699 mmHg 45%
    18:00 +10°C° 0 mm 2 mps 700 mmHg 48%
    19:00 +9°C° 0 mm 2 mps 700 mmHg 52%
    20:00 +9°C° 0 mm 2 mps 700 mmHg 53%
    21:00 +9°C° 0 mm 2 mps 700 mmHg 55%
    22:00 +8°C° 0 mm 2 mps 700 mmHg 56%
    23:00 +8°C° 0 mm 2 mps 700 mmHg 57%

    Tomorrow, 5 June, Friday

    Time Temperature Precipitation Wind Pressure Humidity
    00:00 +9°C° 0 mm 1 mps 700 mmHg 58%
    01:00 +8°C° 0 mm 1 mps 699 mmHg 59%
    02:00 +8°C° 0 mm 1 mps 699 mmHg 61%
    03:00 +8°C° 0 mm 1 mps 699 mmHg 63%
    04:00 +7°C° 0 mm 2 mps 699 mmHg 64%
    05:00 +8°C° 0 mm 1 mps 699 mmHg 64%
    06:00 +8°C° 0 mm 1 mps 699 mmHg 63%
    07:00 +7°C° 0 mm 1 mps 699 mmHg 63%
    08:00 +10°C° 0 mm 1 mps 699 mmHg 54%
    09:00 +12°C° 0 mm 1 mps 700 mmHg 46%
    10:00 +14°C° 0 mm 1 mps 700 mmHg 38%
    11:00 +16°C° 0 mm 1 mps 700 mmHg 35%
    12:00 +18°C° 0 mm 1 mps 699 mmHg 31%
    13:00 +19°C° 0 mm 1 mps 699 mmHg 28%
    14:00 +18°C° 0 mm 1 mps 698 mmHg 29%
    15:00 +18°C° 0 mm 1 mps 698 mmHg 30%
    16:00 +15°C° 0 mm 0 mps 698 mmHg 32%
    17:00 +14°C° 0 mm 0 mps 698 mmHg 33%
    18:00 +13°C° 0 mm 0 mps 698 mmHg 35%
    19:00 +12°C° 0 mm 1 mps 698 mmHg 36%
    20:00 +12°C° 0 mm 1 mps 698 mmHg 36%
    21:00 +12°C° 0 mm 1 mps 698 mmHg 35%
    22:00 +11°C° 0 mm 1 mps 698 mmHg 35%
    23:00 +11°C° 0 mm 1 mps 698 mmHg 35%

    Day after tomorrow, 6 June, Saturday

    Time Temperature Precipitation Wind Pressure Humidity
    00:00 +10°C° 0 mm 1 mps 698 mmHg 36%
    01:00 +10°C° 0 mm 1 mps 697 mmHg 37%
    02:00 +10°C° 0 mm 1 mps 697 mmHg 38%
    03:00 +9°C° 0 mm 1 mps 696 mmHg 40%
    04:00 +9°C° 0 mm 1 mps 696 mmHg 41%
    05:00 +9°C° 0 mm 1 mps 696 mmHg 41%
    06:00 +9°C° 0 mm 1 mps 696 mmHg 42%
    07:00 +9°C° 0 mm 1 mps 696 mmHg 42%
    08:00 +11°C° 0 mm 1 mps 697 mmHg 38%
    09:00 +13°C° 0 mm 1 mps 697 mmHg 35%
    10:00 +16°C° 0 mm 1 mps 697 mmHg 31%
    11:00 +18°C° 0 mm 1 mps 697 mmHg 29%
    12:00 +19°C° 0 mm 1 mps 696 mmHg 26%
    13:00 +20°C° 0 mm 1 mps 696 mmHg 23%
    14:00 +19°C° 0 mm 1 mps 696 mmHg 25%
    15:00 +19°C° 0 mm 1 mps 696 mmHg 26%
    16:00 +18°C° 0 mm 1 mps 696 mmHg 28%
    17:00 +16°C° 0 mm 1 mps 696 mmHg 28%
    18:00 +15°C° 0 mm 1 mps 696 mmHg 29%
    19:00 +14°C° 0 mm 1 mps 696 mmHg 29%
    20:00 +13°C° 0 mm 1 mps 696 mmHg 29%
    21:00 +13°C° 0 mm 2 mps 696 mmHg 29%
    22:00 +13°C° 0 mm 2 mps 696 mmHg 29%
    23:00 +12°C° 0 mm 2 mps 696 mmHg 31%

    7 June, Sunday

    Time Temperature Precipitation Wind Pressure Humidity
    00:00 +12°C° 0 mm 2 mps 696 mmHg 32%
    01:00 +10°C° 0 mm 2 mps 696 mmHg 34%
    02:00 +10°C° 0 mm 2 mps 696 mmHg 34%
    03:00 +10°C° 0 mm 2 mps 696 mmHg 34%
    04:00 +10°C° 0 mm 2 mps 696 mmHg 34%
    05:00 +9°C° 0 mm 2 mps 696 mmHg 36%
    06:00 +9°C° 0 mm 2 mps 697 mmHg 38%
    07:00 +9°C° 0 mm 2 mps 697 mmHg 40%
    08:00 +12°C° 0 mm 2 mps 697 mmHg 38%
    09:00 +13°C° 0 mm 2 mps 698 mmHg 36%
    10:00 +15°C° 0 mm 2 mps 698 mmHg 35%
    11:00 +16°C° 0 mm 2 mps 697 mmHg 33%
    12:00 +17°C° 0 mm 2 mps 697 mmHg 31%
    13:00 +18°C° 0 mm 2 mps 696 mmHg 29%
    14:00 +18°C° 0 mm 1 mps 696 mmHg 31%
    15:00 +18°C° 0 mm 1 mps 696 mmHg 33%
    16:00 +18°C° 0 mm 1 mps 696 mmHg 35%
    17:00 +15°C° 0 mm 1 mps 697 mmHg 37%
    18:00 +14°C° 0 mm 1 mps 697 mmHg 39%
    19:00 +13°C° 0 mm 1 mps 697 mmHg 41%
    20:00 +13°C° 0 mm 1 mps 697 mmHg 40%
    21:00 +12°C° 0 mm 2 mps 698 mmHg 38%
    22:00 +12°C° 0 mm 2 mps 698 mmHg 36%
    23:00 +12°C° 0 mm 2 mps 698 mmHg 37%

    8 June, Monday

    Time Temperature Precipitation Wind Pressure Humidity
    00:00 +10°C° 0 mm 3 mps 698 mmHg 37%
    01:00 +10°C° 0 mm 3 mps 698 mmHg 37%
    02:00 +9°C° 0 mm 2 mps 698 mmHg 39%
    03:00 +9°C° 0 mm 2 mps 698 mmHg 41%
    04:00 +9°C° 0 mm 2 mps 697 mmHg 42%
    05:00 +8°C° 0 mm 2 mps 698 mmHg 42%
    06:00 +8°C° 0 mm 2 mps 698 mmHg 41%
    07:00 +8°C° 0 mm 2 mps 698 mmHg 41%
    08:00 +12°C° 0 mm 2 mps 698 mmHg 36%
    09:00 +14°C° 0 mm 2 mps 698 mmHg 30%
    10:00 +17°C° 0 mm 2 mps 699 mmHg 25%
    11:00 +18°C° 0 mm 2 mps 698 mmHg 23%
    12:00 +18°C° 0 mm 2 mps 698 mmHg 20%
    13:00 +19°C° 0 mm 2 mps 698 mmHg 18%
    14:00 +18°C° 0 mm 2 mps 698 mmHg 20%
    15:00 +19°C° 0 mm 1 mps 698 mmHg 22%
    16:00 +18°C° 0 mm 1 mps 698 mmHg 23%
    17:00 +16°C° 0 mm 1 mps 698 mmHg 25%
    18:00 +15°C° 0 mm 1 mps 698 mmHg 26%
    19:00 +14°C° 0 mm 2 mps 698 mmHg 28%
    20:00 +13°C° 0 mm 2 mps 698 mmHg 29%
    21:00 +13°C° 0 mm 1 mps 698 mmHg 30%
    22:00 +13°C° 0 mm 1 mps 698 mmHg 31%
    23:00 +12°C° 0 mm 1 mps 698 mmHg 31%

    9 June, Tuesday

    Time Temperature Precipitation Wind Pressure Humidity
    00:00 +12°C° 0 mm 1 mps 698 mmHg 30%
    01:00 +12°C° 0 mm 1 mps 698 mmHg 30%
    02:00 +10°C° 0 mm 2 mps 698 mmHg 34%
    03:00 +10°C° 0 mm 3 mps 698 mmHg 37%
    04:00 +8°C° 0 mm 4 mps 698 mmHg 41%
    05:00 +8°C° 0 mm 4 mps 698 mmHg 44%
    06:00 +7°C° 0 mm 4 mps 699 mmHg 47%
    07:00 +7°C° 0 mm 4 mps 699 mmHg 50%
    08:00 +8°C° 0 mm 4 mps 699 mmHg 46%
    09:00 +10°C° 0 mm 4 mps 699 mmHg 43%
    10:00 +11°C° 0 mm 4 mps 699 mmHg 39%
    11:00 +12°C° 0 mm 3 mps 698 mmHg 39%
    12:00 +13°C° 0 mm 3 mps 697 mmHg 38%
    13:00 +13°C° 0 mm 3 mps 697 mmHg 38%
    14:00 +14°C° 0 mm 2 mps 697 mmHg 38%
    15:00 +14°C° 0 mm 2 mps 697 mmHg 38%
    16:00 +14°C° 0 mm 2 mps 696 mmHg 38%
    17:00 +13°C° 0 mm 1 mps 697 mmHg 40%
    18:00 +12°C° 0 mm 1 mps 697 mmHg 41%
    19:00 +10°C° 0 mm 1 mps 697 mmHg 42%
    20:00 +10°C° 0 mm 1 mps 697 mmHg 42%
    21:00 +8°C° 0 mm 0 mps 697 mmHg 42%
    22:00 +8°C° 0 mm 0 mps 697 mmHg 41%
    23:00 +7°C° 0 mm 0 mps 697 mmHg 41%
    Show more